| time (UTC) | temp F | wind direction | speed MPH | gust MPH | rain 1hr in | rain 24hr in | rain mn in | humidity % | barometer mb |
| 20260509182030 | 56 | 115 | 3.0 | 6.0 | 0.28 | 0.44 | 0.44 | 93 | 1006.6 |
| 20260509181055 | 56 | 145 | 3.0 | 7.0 | 0.33 | 0.40 | 0.40 | 93 | 1006.3 |
| 20260509180118 | 56 | 158 | 7.0 | 14.0 | 0.30 | 0.34 | 0.34 | 93 | 1006.3 |
| 20260509175038 | 57 | 143 | 8.0 | 15.0 | 0.17 | 0.20 | 0.20 | 88 | 1006.1 |
| 20260509174103 | 57 | 50 | 1.0 | 2.0 | 0.16 | 0.19 | 0.19 | 88 | 1005.5 |
| 20260509173043 | 58 | 27 | 1.0 | 3.0 | 0.16 | 0.19 | 0.19 | 87 | 1005.3 |
| 20260509172106 | 58 | 342 | 1.0 | 4.0 | 0.13 | 0.16 | 0.16 | 85 | 1005.3 |
| 20260509171110 | 60 | 342 | 3.0 | 6.0 | 0.04 | 0.07 | 0.07 | 80 | 1005.4 |
| 20260509170030 | 61 | 273 | 4.0 | 8.0 | 0.01 | 0.04 | 0.04 | 72 | 1005.3 |
| 20260509165054 | 62 | 258 | 5.0 | 9.0 | 0.00 | 0.03 | 0.03 | 75 | 1005.4 |
| 20260509164139 | 63 | 8 | 3.0 | 6.0 | 0.00 | 0.03 | 0.03 | 73 | 1005.0 |
| 20260509163038 | 64 | 55 | 2.0 | 4.0 | 0.00 | 0.03 | 0.03 | 70 | 1005.0 |
| 20260509162103 | 64 | 19 | 1.0 | 6.0 | 0.00 | 0.03 | 0.03 | 71 | 1004.9 |
| 20260509161023 | 65 | 0 | 4.0 | 8.0 | 0.00 | 0.03 | 0.03 | 71 | 1004.9 |
| 20260509160128 | 69 | 14 | 2.0 | 6.0 | 0.00 | 0.03 | 0.03 | 62 | 1004.9 |
| 20260509155111 | 72 | 54 | 0.0 | 1.0 | 0.00 | 0.03 | 0.03 | 55 | 1004.9 |
| 20260509154030 | 69 | 64 | 2.0 | 3.0 | 0.00 | 0.03 | 0.03 | 60 | 1005.0 |
| 20260509153054 | 68 | 102 | 1.0 | 6.0 | 0.00 | 0.03 | 0.03 | 65 | 1004.9 |
| 20260509152118 | 65 | 102 | 1.0 | 2.0 | 0.02 | 0.03 | 0.03 | 69 | 1004.9 |
| 20260509151038 | 64 | 103 | 3.0 | 7.0 | 0.02 | 0.03 | 0.03 | 69 | 1005.1 |
| 20260509150103 | 62 | 129 | 3.0 | 8.0 | 0.02 | 0.03 | 0.03 | 75 | 1005.0 |
| 20260509145022 | 60 | 87 | 3.0 | 8.0 | 0.02 | 0.03 | 0.03 | 77 | 1005.2 |
| 20260509144047 | 61 | 102 | 5.0 | 10.0 | 0.03 | 0.03 | 0.03 | 77 | 1005.4 |
| 20260509143110 | 62 | 133 | 8.0 | 16.0 | 0.03 | 0.03 | 0.03 | 75 | 1005.6 |
| 20260509142032 | 63 | 145 | 7.0 | 14.0 | 0.01 | 0.01 | 0.01 | 72 | 1005.6 |
| 20260509141054 | 63 | 148 | 6.0 | 14.0 | 0.01 | 0.01 | 0.01 | 70 | 1005.4 |
| 20260509140119 | 63 | 144 | 6.0 | 10.0 | 0.01 | 0.01 | 0.01 | 69 | 1005.4 |
| 20260509135038 | 65 | 154 | 7.0 | 13.0 | 0.01 | 0.01 | 0.01 | 64 | 1005.3 |
| 20260509134103 | 65 | 135 | 6.0 | 14.0 | 0.00 | 0.00 | 0.00 | 61 | 1005.1 |
| 20260509133023 | 68 | 128 | 5.0 | 14.0 | 0.00 | 0.00 | 0.00 | 52 | 1004.9 |
| 20260509132046 | 68 | 107 | 10.0 | 19.0 | 0.00 | 0.00 | 0.00 | 48 | 1004.8 |
| 20260509131110 | 69 | 83 | 10.0 | 21.0 | 0.00 | 0.00 | 0.00 | 47 | 1004.7 |
| 20260509130030 | 70 | 97 | 7.0 | 15.0 | 0.00 | 0.00 | 0.00 | 46 | 1004.5 |
| 20260509125054 | 70 | 112 | 6.0 | 16.0 | 0.00 | 0.00 | 0.00 | 46 | 1004.4 |
| 20260509124118 | 71 | 135 | 6.0 | 17.0 | 0.00 | 0.00 | 0.00 | 46 | 1004.5 |
| 20260509123102 | 70 | 120 | 5.0 | 11.0 | 0.00 | 0.00 | 0.00 | 46 | 1004.7 |
| 20260509122102 | 69 | 34 | 1.0 | 3.0 | 0.00 | 0.00 | 0.00 | 55 | 1004.7 |
| 20260509121042 | 66 | 12 | 2.0 | 3.0 | 0.00 | 0.00 | 0.00 | 67 | 1005.0 |
| 20260509120107 | 68 | 40 | 2.0 | 3.0 | 0.00 | 0.00 | 0.00 | 63 | 1005.1 |
| 20260509115110 | 65 | 356 | 2.0 | 6.0 | 0.00 | 0.00 | 0.00 | 68 | 1005.2 |
| 20260509114111 | 65 | 342 | 3.0 | 7.0 | 0.00 | 0.00 | 0.00 | 68 | 1005.3 |
| 20260509113054 | 65 | 33 | 3.0 | 6.0 | 0.00 | 0.00 | 0.00 | 66 | 1005.4 |
| 20260509112118 | 67 | 23 | 4.0 | 8.0 | 0.00 | 0.00 | 0.00 | 64 | 1005.4 |
| 20260509111038 | 65 | 17 | 2.0 | 7.0 | 0.00 | 0.00 | 0.00 | 67 | 1005.5 |
| 20260509105022 | 63 | 13 | 4.0 | 7.0 | 0.00 | 0.00 | 0.00 | 72 | 1005.9 |
| 20260509104046 | 62 | 5 | 4.0 | 9.0 | 0.00 | 0.00 | 0.00 | 73 | 1006.1 |
| 20260509103110 | 63 | 16 | 4.0 | 8.0 | 0.00 | 0.00 | 0.00 | 72 | 1006.2 |
| 20260509102030 | 65 | 25 | 5.0 | 7.0 | 0.00 | 0.00 | 0.00 | 66 | 1006.2 |
| 20260509101054 | 66 | 350 | 4.0 | 7.0 | 0.00 | 0.00 | 0.00 | 64 | 1006.2 |
| 20260509100119 | 67 | 349 | 3.0 | 6.0 | 0.00 | 0.00 | 0.00 | 61 | 1006.2 |
| 20260509095039 | 67 | 62 | 2.0 | 6.0 | 0.00 | 0.00 | 0.00 | 58 | 1006.3 |
| 20260509094102 | 67 | 55 | 1.0 | 2.0 | 0.00 | 0.00 | 0.00 | 59 | 1006.2 |
| 20260509093022 | 67 | 76 | 2.0 | 3.0 | 0.00 | 0.00 | 0.00 | 59 | 1006.6 |
| 20260509092046 | 64 | 106 | 3.0 | 8.0 | 0.00 | 0.00 | 0.00 | 65 | 1006.7 |
| 20260509091110 | 63 | 91 | 1.0 | 3.0 | 0.00 | 0.00 | 0.00 | 68 | 1006.6 |
| 20260509090031 | 62 | 78 | 1.0 | 3.0 | 0.00 | 0.00 | 0.00 | 71 | 1006.7 |
| 20260509085053 | 60 | 130 | 2.0 | 4.0 | 0.00 | 0.00 | 0.00 | 73 | 1006.6 |
| 20260509084139 | 60 | 112 | 2.0 | 4.0 | 0.00 | 0.00 | 0.00 | 74 | 1006.6 |
| 20260509083039 | 59 | 107 | 1.0 | 4.0 | 0.00 | 0.00 | 0.00 | 75 | 1006.5 |
| 20260509082122 | 58 | 97 | 2.0 | 3.0 | 0.00 | 0.00 | 0.00 | 76 | 1006.5 |
| 20260509081021 | 58 | 92 | 2.0 | 3.0 | 0.00 | 0.00 | 0.00 | 76 | 1006.4 |
| 20260509080126 | 57 | 77 | 1.0 | 2.0 | 0.00 | 0.00 | 0.00 | 78 | 1006.5 |
| 20260509075110 | 56 | 79 | 1.0 | 2.0 | 0.00 | 0.00 | 0.00 | 81 | 1006.7 |
| 20260509074030 | 55 | 86 | 2.0 | 3.0 | 0.00 | 0.00 | 0.00 | 83 | 1006.8 |
| 20260509073054 | 54 | 87 | 1.0 | 2.0 | 0.00 | 0.00 | 0.00 | 86 | 1006.9 |
| 20260509072118 | 53 | 113 | 2.0 | 3.0 | 0.00 | 0.00 | 0.00 | 88 | 1006.8 |
| 20260509071037 | 53 | 87 | 1.0 | 2.0 | 0.00 | 0.00 | 0.00 | 89 | 1006.7 |
| 20260509065043 | 52 | 81 | 1.0 | 2.0 | 0.00 | 0.00 | 0.00 | 90 | 1006.6 |
| 20260509064046 | 52 | 73 | 1.0 | 1.0 | 0.00 | 0.00 | 0.00 | 90 | 1006.7 |
| 20260509063111 | 52 | 82 | 0.0 | 2.0 | 0.00 | 0.00 | 0.00 | 89 | 1006.7 |
| 20260509062030 | 52 | 92 | 1.0 | 2.0 | 0.00 | 0.00 | 0.00 | 88 | 1006.6 |
| 20260509061054 | 52 | 49 | 0.0 | 1.0 | 0.00 | 0.00 | 0.00 | 88 | 1006.7 |
| 20260509060138 | 52 | 64 | 0.0 | 1.0 | 0.00 | 0.00 | 0.00 | 88 | 1006.7 |
| 20260509055038 | 52 | 0.0 | 0.0 | 0.00 | 0.00 | 0.00 | 89 | 1006.6 | |
| 20260509054123 | 51 | 65 | 0.0 | 1.0 | 0.00 | 0.00 | 0.00 | 90 | 1006.5 |
| 20260509053024 | 51 | 69 | 0.0 | 1.0 | 0.00 | 0.00 | 0.00 | 90 | 1006.6 |
| 20260509052046 | 51 | 76 | 1.0 | 2.0 | 0.00 | 0.00 | 0.00 | 90 | 1006.4 |
| 20260509051130 | 51 | 73 | 1.0 | 1.0 | 0.00 | 0.00 | 0.00 | 90 | 1006.4 |
| 20260509050029 | 51 | 38 | 0.0 | 1.0 | 0.00 | 0.00 | 0.00 | 90 | 1006.3 |
| 20260509045053 | 51 | 0.0 | 2.0 | 0.00 | 0.00 | 0.00 | 90 | 1006.5 | |
| 20260509044120 | 51 | 78 | 1.0 | 2.0 | 0.00 | 0.00 | 0.00 | 90 | 1006.3 |
| 20260509043041 | 51 | 72 | 0.0 | 2.0 | 0.00 | 0.00 | 0.00 | 90 | 1006.1 |
| 20260509042103 | 51 | 72 | 0.0 | 1.0 | 0.00 | 0.00 | 0.00 | 91 | 1006.3 |
| 20260509041024 | 51 | 0.0 | 2.0 | 0.00 | 0.00 | 0.00 | 91 | 1006.1 | |
| 20260509040046 | 51 | 127 | 2.0 | 3.0 | 0.00 | 0.00 | 0.00 | 91 | 1006.7 |
| 20260509035109 | 51 | 105 | 3.0 | 4.0 | 0.00 | 0.00 | 0.00 | 92 | 1006.5 |
| 20260509034031 | 50 | 90 | 1.0 | 2.0 | 0.00 | 0.00 | 0.00 | 92 | 1006.5 |
| 20260509033053 | 50 | 92 | 2.0 | 2.0 | 0.00 | 0.00 | 0.00 | 92 | 1006.6 |
| 20260509032118 | 50 | 79 | 1.0 | 2.0 | 0.00 | 0.00 | 0.00 | 92 | 1006.6 |
| 20260509031038 | 50 | 82 | 1.0 | 2.0 | 0.00 | 0.00 | 0.00 | 91 | 1006.6 |
| 20260509025042 | 50 | 120 | 2.0 | 4.0 | 0.00 | 0.00 | 0.00 | 91 | 1006.7 |
| 20260509024106 | 50 | 101 | 2.0 | 4.0 | 0.00 | 0.00 | 0.00 | 92 | 1006.6 |
| 20260509023129 | 50 | 100 | 1.0 | 4.0 | 0.00 | 0.00 | 0.00 | 92 | 1006.8 |
| 20260509022051 | 50 | 83 | 2.0 | 3.0 | 0.00 | 0.00 | 0.00 | 92 | 1006.8 |
| 20260509021054 | 50 | 115 | 2.0 | 3.0 | 0.00 | 0.00 | 0.00 | 91 | 1007.1 |
| 20260509020118 | 50 | 84 | 1.0 | 3.0 | 0.00 | 0.00 | 0.00 | 91 | 1007.0 |
| 20260509015038 | 50 | 89 | 2.0 | 3.0 | 0.00 | 0.00 | 0.00 | 91 | 1007.2 |
| 20260509014122 | 51 | 83 | 2.0 | 3.0 | 0.00 | 0.00 | 0.00 | 90 | 1007.3 |
| 20260509013023 | 51 | 81 | 1.0 | 2.0 | 0.00 | 0.00 | 0.00 | 91 | 1007.3 |
| 20260509012048 | 51 | 80 | 1.0 | 2.0 | 0.00 | 0.00 | 0.00 | 91 | 1007.5 |
| 20260509011110 | 50 | 79 | 0.0 | 2.0 | 0.00 | 0.00 | 0.00 | 91 | 1007.7 |
| 20260509010030 | 51 | 92 | 1.0 | 3.0 | 0.00 | 0.00 | 0.00 | 90 | 1007.8 |
| 20260509005054 | 51 | 74 | 0.0 | 1.0 | 0.00 | 0.00 | 0.00 | 90 | 1007.9 |
| 20260509004117 | 51 | 0.0 | 1.0 | 0.00 | 0.00 | 0.00 | 90 | 1007.9 | |
| 20260509003038 | 51 | 92 | 2.0 | 4.0 | 0.00 | 0.00 | 0.00 | 90 | 1008.1 |
| 20260509002103 | 52 | 96 | 2.0 | 6.0 | 0.00 | 0.00 | 0.00 | 90 | 1008.3 |
| 20260509001022 | 52 | 105 | 3.0 | 6.0 | 0.00 | 0.00 | 0.00 | 90 | 1008.3 |
| 20260509000106 | 52 | 109 | 3.0 | 6.0 | 0.00 | 0.00 | 0.00 | 90 | 1008.4 |
| 20260508235110 | 52 | 108 | 2.0 | 3.0 | 0.00 | 0.00 | 0.00 | 90 | 1008.4 |
| 20260508234030 | 52 | 102 | 2.0 | 4.0 | 0.00 | 0.00 | 0.00 | 90 | 1008.5 |
| 20260508233053 | 53 | 86 | 2.0 | 3.0 | 0.00 | 0.00 | 0.00 | 90 | 1008.6 |
| 20260508232117 | 53 | 108 | 3.0 | 4.0 | 0.00 | 0.00 | 0.00 | 89 | 1008.7 |
| 20260508231058 | 54 | 77 | 1.0 | 2.0 | 0.00 | 0.00 | 0.00 | 88 | 1008.7 |
| 20260508225021 | 53 | 73 | 1.0 | 1.0 | 0.00 | 0.00 | 0.00 | 88 | 1009.0 |
| 20260508224046 | 53 | 61 | 0.0 | 1.0 | 0.00 | 0.00 | 0.00 | 88 | 1009.1 |
| 20260508223109 | 54 | 91 | 2.0 | 4.0 | 0.00 | 0.00 | 0.00 | 87 | 1009.4 |
| 20260508222030 | 55 | 109 | 2.0 | 4.0 | 0.00 | 0.00 | 0.00 | 84 | 1009.3 |
| 20260508221055 | 55 | 90 | 2.0 | 3.0 | 0.00 | 0.00 | 0.00 | 81 | 1009.4 |
| 20260508220118 | 55 | 68 | 1.0 | 2.0 | 0.00 | 0.00 | 0.00 | 84 | 1009.5 |
| 20260508215038 | 55 | 84 | 2.0 | 3.0 | 0.00 | 0.00 | 0.00 | 82 | 1009.7 |
| 20260508214102 | 56 | 72 | 1.0 | 3.0 | 0.00 | 0.00 | 0.00 | 81 | 1009.6 |
| 20260508213022 | 55 | 96 | 2.0 | 4.0 | 0.00 | 0.00 | 0.00 | 82 | 1009.9 |
| 20260508212046 | 55 | 95 | 3.0 | 6.0 | 0.00 | 0.00 | 0.00 | 82 | 1009.8 |
| 20260508211110 | 56 | 110 | 2.0 | 3.0 | 0.00 | 0.00 | 0.00 | 82 | 1009.8 |
| 20260508210050 | 57 | 95 | 2.0 | 3.0 | 0.00 | 0.00 | 0.00 | 79 | 1009.9 |
| 20260508205054 | 58 | 108 | 2.0 | 6.0 | 0.00 | 0.00 | 0.00 | 75 | 1009.8 |
| 20260508204118 | 57 | 66 | 2.0 | 7.0 | 0.00 | 0.00 | 0.00 | 76 | 1009.8 |
| 20260508203038 | 57 | 48 | 0.0 | 3.0 | 0.00 | 0.00 | 0.00 | 76 | 1009.7 |
| 20260508202102 | 58 | 52 | 1.0 | 2.0 | 0.00 | 0.00 | 0.00 | 76 | 1009.6 |
| 20260508201103 | 58 | 42 | 0.0 | 2.0 | 0.00 | 0.00 | 0.00 | 75 | 1009.6 |
| 20260508200046 | 59 | 0.0 | 1.0 | 0.00 | 0.00 | 0.00 | 73 | 1009.5 | |
| 20260508195110 | 59 | 0.0 | 1.0 | 0.00 | 0.00 | 0.00 | 71 | 1009.5 | |
| 20260508194030 | 60 | 0.0 | 0.0 | 0.00 | 0.00 | 0.00 | 69 | 1009.4 | |
| 20260508193053 | 60 | 67 | 0.0 | 2.0 | 0.00 | 0.00 | 0.00 | 69 | 1009.5 |
| 20260508192117 | 60 | 91 | 2.0 | 6.0 | 0.00 | 0.00 | 0.00 | 67 | 1009.6 |
| 20260508191038 | 60 | 136 | 4.0 | 7.0 | 0.00 | 0.00 | 0.00 | 67 | 1009.6 |
| 20260508185022 | 61 | 89 | 1.0 | 6.0 | 0.00 | 0.00 | 0.00 | 69 | 1009.4 |
| 20260508184206 | 61 | 100 | 2.0 | 4.0 | 0.00 | 0.00 | 0.00 | 68 | 1009.4 |
| 20260508183111 | 61 | 110 | 3.0 | 6.0 | 0.00 | 0.00 | 0.00 | 67 | 1009.4 |